1487192400.79,56347,13.63,74872.5,-4.21,-33.09,-33.27,0,*58
1487192402.08,56348,13.63,74874.5,-4.23,-32.75,-32.75,0,*59
1487192403.35,56349,13.63,74870.3,-4.23,-32.75,-32.91,0,*52
1487192404.64,56350,13.63,74870.0,-4.23,-33.09,-33.27,0,*5C
1487192405.94,56351,13.63,74870.0,-4.23,-32.75,-32.79,0,*5D
1487192407.21,56352,13.63,74870.5,-4.21,-32.63,-32.75,0,*57
1487192408.48,56353,13.63,74872.0,-4.23,-32.79,-32.91,0,*55
1487192409.75,56354,13.63,74874.8,-4.23,-32.79,-32.91,0,*52
1487192411.03,56355,13.63,74870.5,-4.23,-33.09,-32.97,0,*53
1487192412.32,56356,13.63,74874.8,-4.23,-32.79,-33.09,0,*50
1487192413.57,56357,13.63,74874.5,-4.21,-32.75,-32.91,0,*5F
1487192414.86,56358,13.63,74872.0,-4.23,-32.79,-32.97,0,*58
1487192416.14,56359,13.63,74868.0,-4.23,-32.79,-32.97,0,*59
1487192417.38,56360,13.63,74872.8,-4.23,-32.91,-33.15,0,*5E
1487192418.59,56361,13.63,74870.8,-4.25,-33.03,-33.15,0,*53
1487192419.82,56362,13.63,74874.8,-4.25,-33.15,-33.31,0,*51
1487192421.09,56363,13.63,74872.5,-4.25,-32.85,-32.97,0,*55
1487192422.35,56364,13.63,74876.0,-4.25,-32.85,-32.97,0,*52
1487192423.62,56365,13.63,74874.0,-4.23,-32.75,-32.91,0,*5C
1487192424.91,56366,13.63,74872.5,-4.23,-32.79,-32.79,0,*55
1487192426.17,56367,13.63,74872.3,-4.23,-32.91,-33.09,0,*54
1487192427.46,56368,13.63,74874.8,-4.23,-32.79,-32.97,0,*5B
1487192428.73,56369,13.63,74872.3,-4.25,-32.75,-32.79,0,*50
1487192429.99,56370,13.63,74876.0,-4.25,-32.79,-32.97,0,*54
1487192431.25,56371,13.63,74872.8,-4.23,-32.91,-33.09,0,*53
1487192432.54,56372,13.63,74878.5,-4.23,-32.79,-33.09,0,*56
1487192433.83,56373,13.63,74878.5,-4.23,-32.97,-33.09,0,*57
1487192435.11,56374,13.63,74876.3,-4.23,-32.79,-32.97,0,*56
1487192436.38,56375,13.63,74872.8,-4.25,-32.79,-32.97,0,*51
1487192437.64,56376,13.63,74872.5,-4.25,-32.63,-32.85,0,*5A
1487192438.91,56377,13.63,74870.8,-4.25,-32.85,-32.85,0,*53
1487192440.17,56378,13.63,74870.5,-4.23,-32.91,-33.09,0,*5A
1487192441.44,56379,13.63,74872.0,-4.23,-32.79,-32.91,0,*5D
1487192442.67,56380,13.63,74872.5,-4.25,-32.97,-33.15,0,*50
1487192443.89,56381,13.63,74868.3,-4.25,-33.03,-33.15,0,*5D
1487192445.13,56382,13.63,74872.0,-4.25,-32.85,-33.03,0,*56
1487192446.36,56383,13.63,74872.8,-4.25,-32.97,-33.03,0,*54
1487192447.62,56384,13.63,74872.5,-4.27,-32.97,-33.21,0,*51
1487192448.86,56385,13.63,74874.0,-4.25,-33.15,-33.31,0,*58
1487192450.12,56386,13.63,74870.5,-4.27,-33.15,-33.31,0,*59
1487192451.36,56387,13.63,74874.8,-4.25,-33.03,-33.31,0,*5D
1487192452.6,56388,13.63,74868.5,-4.25,-33.03,-33.31,0,*52
1487192453.84,56389,13.63,74872.5,-4.25,-33.15,-33.31,0,*54
1487192455.1,56390,13.63,74870.5,-4.25,-32.79,-32.97,0,*5A
1487192456.34,56391,13.63,74876.0,-4.27,-33.03,-33.15,0,*5E
1487192457.6,56392,13.63,74874.3,-4.27,-32.97,-33.03,0,*56
1487192458.84,56393,13.63,74872.5,-4.25,-32.97,-33.03,0,*55
1487192460.1,56394,13.63,74872.0,-4.27,-32.97,-33.15,0,*57
1487192461.35,56395,13.63,74874.3,-4.25,-32.69,-32.79,0,*5E
1487192462.63,56396,13.63,74874.5,-4.27,-32.45,-32.63,0,*5A
1487192463.92,56397,13.63,74874.8,-4.27,-32.63,-32.63,0,*5F
1487192465.17,56398,13.63,74878.0,-4.25,-32.63,-32.69,0,*58
1487192466.41,56399,13.63,74874.5,-4.25,-32.69,-32.79,0,*52
1487192467.66,56400,13.63,74872.8,-4.25,-32.63,-32.69,0,*5E
1487192468.9,56401,13.63,74870.3,-4.25,-32.69,-32.79,0,*54
1487192470.14,56402,13.63,74872.8,-4.25,-32.85,-33.03,0,*59
1487192471.41,56403,13.63,74872.8,-4.27,-32.97,-33.03,0,*59
1487192472.68,56404,13.63,74866.8,-4.25,-32.79,-32.85,0,*53
1487192473.91,56405,13.63,74872.5,-4.25,-32.97,-33.03,0,*5D
1487192475.17,56406,13.63,74874.0,-4.27,-32.97,-33.03,0,*5C
1487192476.41,56407,13.63,74872.8,-4.25,-32.97,-33.03,0,*5F
1487192477.65,56408,13.63,74874.5,-4.25,-32.97,-33.15,0,*57
1487192478.88,56409,13.63,74870.8,-4.25,-32.97,-33.21,0,*51
1487192480.17,56410,13.63,74874.3,-4.27,-32.85,-32.97,0,*54
1487192481.44,56411,13.63,74874.0,-4.27,-32.51,-32.79,0,*5C
1487192482.71,56412,13.63,74874.0,-4.25,-32.79,-32.79,0,*57
1487192484.0,56413,13.63,74874.5,-4.27,-32.85,-32.85,0,*54
1487192485.22,56414,13.63,74874.3,-4.25,-32.69,-32.69,0,*51
1487192486.46,56415,13.63,74868.8,-4.25,-32.85,-33.03,0,*5F
1487192487.75,56416,13.63,74872.0,-4.27,-32.97,-32.97,0,*51
1487192489.04,56417,13.63,74874.0,-4.23,-32.79,-32.97,0,*54
1487192490.25,56418,13.63,74874.3,-4.25,-33.03,-33.15,0,*5A
1487192491.51,56419,13.63,74874.5,-4.25,-32.85,-32.97,0,*5F
1487192492.75,56420,13.63,74874.3,-4.25,-32.51,-32.63,0,*57
1487192493.99,56421,13.63,74874.5,-4.25,-32.63,-32.69,0,*5D
1487192495.25,56422,13.63,74872.3,-4.25,-32.97,-32.97,0,*54
1487192496.52,56423,13.63,74872.5,-4.27,-32.69,-32.85,0,*55
1487192497.79,56424,13.63,74870.8,-4.25,-32.85,-32.97,0,*51
1487192499.05,56425,13.63,74874.0,-4.25,-32.85,-32.97,0,*50
1487192500.28,56426,13.63,74870.5,-4.25,-32.97,-33.03,0,*5C
1487192501.55,56427,13.63,74872.8,-4.27,-32.97,-33.21,0,*5F
1487192502.78,56428,13.63,74874.3,-4.27,-33.03,-33.15,0,*5B
1487192504.02,56429,13.63,74872.8,-4.27,-33.03,-33.21,0,*5D
1487192505.28,56430,13.63,74870.5,-4.27,-32.97,-33.15,0,*5E
1487192506.55,56431,13.63,74876.5,-4.27,-32.97,-33.15,0,*5F
1487192507.81,56432,13.63,74872.0,-4.27,-32.97,-33.21,0,*5B
1487192509.07,56433,13.63,74874.3,-4.27,-32.97,-33.03,0,*5A
1487192510.31,56434,13.63,74872.0,-4.25,-32.85,-33.03,0,*5C
1487192511.6,56435,13.63,74878.0,-4.27,-32.85,-32.85,0,*50
1487192512.9,56436,13.63,74872.5,-4.27,-32.79,-32.85,0,*50
1487192514.16,56437,13.63,74874.0,-4.27,-32.97,-33.03,0,*5E
1487192515.45,56438,13.63,74872.3,-4.27,-32.85,-32.97,0,*5E
1487192516.74,56439,13.63,74870.8,-4.27,-32.85,-32.97,0,*5F
1487192517.98,56440,13.63,74870.8,-4.27,-33.03,-33.15,0,*55
1487192519.27,56441,13.63,74872.3,-4.27,-32.79,-32.85,0,*50
1487192520.53,56442,13.63,74872.0,-4.25,-32.45,-32.63,0,*56
1487192521.83,56443,13.63,74872.0,-4.27,-32.63,-32.79,0,*5A
1487192523.09,56444,13.63,74872.0,-4.27,-32.63,-32.69,0,*5C
1487192524.36,56445,13.63,74874.5,-4.27,-32.97,-33.03,0,*5B
1487192525.62,56446,13.63,74874.0,-4.27,-32.97,-33.03,0,*58
1487192526.88,56447,13.63,74872.3,-4.27,-32.97,-33.15,0,*5E
1487192528.14,56448,13.63,74874.0,-4.27,-32.97,-33.21,0,*56
1487192529.43,56449,13.63,74874.8,-4.27,-32.85,-32.97,0,*58
1487192530.69,56450,13.63,74872.5,-4.25,-32.45,-32.63,0,*55
1487192531.94,56451,13.63,74874.3,-4.27,-32.51,-32.69,0,*59
1487192533.22,56452,13.63,74874.5,-4.27,-32.97,-32.97,0,*51
1487192534.43,56453,13.63,74874.0,-4.25,-33.03,-33.21,0,*52
1487192535.67,56454,13.63,74874.3,-4.27,-33.03,-33.21,0,*57
1487192536.93,56455,13.63,74874.5,-4.25,-32.85,-32.97,0,*57
1487192538.2,56456,13.63,74872.5,-4.25,-32.85,-32.97,0,*54
1487192539.44,56457,13.63,74874.5,-4.25,-32.69,-32.79,0,*57
1487192540.74,56458,13.63,74874.3,-4.27,-32.79,-32.85,0,*58
1487192542.01,56459,13.63,74874.8,-4.27,-32.85,-33.03,0,*55
1487192543.3,56460,13.63,74872.5,-4.27,-32.79,-32.97,0,*50
1487192544.58,56461,13.63,74874.5,-4.27,-32.85,-32.97,0,*52
1487192545.87,56462,13.63,74872.8,-4.27,-32.85,-32.97,0,*51
1487192547.13,56463,13.63,74870.8,-4.27,-32.97,-33.03,0,*5F
1487192548.4,56464,13.63,74872.0,-4.27,-32.85,-33.03,0,*5B
1487192549.64,56465,13.63,74872.5,-4.27,-33.03,-33.03,0,*55
1487192550.87,56466,13.63,74868.5,-4.27,-33.15,-33.21,0,*51
1487192552.14,56467,13.63,74874.5,-4.27,-32.85,-33.15,0,*5F
1487192553.41,56468,13.63,74872.8,-4.27,-32.69,-32.79,0,*59
1487192554.7,56469,13.63,74872.3,-4.27,-32.79,-32.97,0,*59
1487192555.99,56470,13.63,74872.0,-4.27,-32.85,-32.97,0,*52
1487192557.26,56471,13.63,74876.0,-4.27,-32.85,-33.03,0,*5F
1487192558.5,56472,13.63,74872.5,-4.27,-33.03,-33.21,0,*53
1487192559.76,56473,13.63,74872.8,-4.27,-32.85,-33.03,0,*5D
1487192561.05,56474,13.63,74872.5,-4.27,-32.85,-32.97,0,*56
1487192562.32,56475,13.63,74872.0,-4.27,-32.85,-33.03,0,*5B
1487192563.53,56476,13.63,74878.3,-4.33,-32.91,-33.03,0,*58
1487192564.74,56477,13.63,74876.0,-4.29,-32.91,-33.03,0,*52
1487192565.98,56478,13.63,74874.8,-4.29,-33.03,-33.09,0,*5D
1487192567.23,56479,13.63,74872.0,-4.29,-32.85,-32.91,0,*53
1487192568.49,56480,13.63,74870.8,-4.27,-32.85,-33.03,0,*51
1487192569.76,56481,13.63,74874.3,-4.27,-32.85,-33.03,0,*50
1487192571.03,56482,13.63,74876.8,-4.27,-32.85,-33.03,0,*53
1487192572.24,56483,13.63,74874.3,-4.29,-32.91,-33.03,0,*59
1487192573.48,56484,13.63,74872.5,-4.29,-32.91,-33.09,0,*54
1487192574.7,56485,13.63,74874.5,-4.29,-33.03,-33.03,0,*55
1487192575.91,56486,13.63,74872.0,-4.29,-33.03,-33.03,0,*56
1487192577.15,56487,13.63,74874.5,-4.29,-32.91,-33.09,0,*57
1487192578.4,56488,13.63,74874.3,-4.29,-32.85,-32.91,0,*5D
1487192579.62,56489,13.63,74872.8,-4.29,-33.03,-32.91,0,*53
1487192580.84,56490,13.63,74874.8,-4.29,-33.03,-33.03,0,*51
1487192582.08,56491,13.63,74872.8,-4.29,-32.75,-32.91,0,*5A
1487192583.32,56492,13.63,74872.0,-4.33,-32.91,-33.09,0,*58
1487192584.56,56493,13.63,74870.3,-4.29,-33.03,-33.09,0,*58
1487192585.81,56494,13.63,74872.3,-4.29,-32.85,-32.91,0,*50
1487192587.05,56495,13.63,74874.5,-4.29,-33.21,-33.27,0,*52
1487192588.33,56496,13.63,74874.0,-4.29,-33.09,-33.27,0,*5B
1487192589.54,56497,13.63,74874.3,-4.33,-32.91,-33.03,0,*57
1487192590.79,56498,13.63,74872.8,-4.33,-32.69,-32.85,0,*50
1487192592.03,56499,13.63,74874.8,-4.29,-32.85,-32.91,0,*5D
1487192593.27,56500,13.63,74872.5,-4.29,-32.91,-33.09,0,*59
1487192594.48,56501,13.63,74874.8,-4.29,-32.91,-33.03,0,*52
1487192595.72,56502,13.63,74876.8,-4.33,-33.03,-33.09,0,*5A
1487192596.96,56503,13.63,74870.8,-4.33,-32.91,-33.09,0,*51
1487192598.2,56504,13.63,74872.3,-4.33,-33.03,-33.09,0,*5C
1487192599.47,56505,13.63,74874.3,-4.33,-33.09,-33.09,0,*57
1487192600.71,56506,13.63,74878.3,-4.33,-33.03,-33.09,0,*5E
1487192601.98,56507,13.63,74870.5,-4.33,-32.75,-32.75,0,*55
1487192603.23,56508,13.63,74872.3,-4.29,-32.69,-32.75,0,*5C
1487192604.51,56509,13.63,74872.8,-4.29,-32.75,-32.75,0,*50
1487192605.75,56510,13.63,74874.8,-4.33,-32.85,-32.91,0,*56
1487192606.98,56511,13.63,74874.8,-4.33,-32.69,-32.69,0,*52
1487192608.23,56512,13.63,74876.3,-4.29,-32.69,-32.85,0,*58
1487192609.47,56513,13.63,74872.8,-4.29,-32.85,-32.91,0,*5E
1487192610.69,56514,13.63,74872.8,-4.33,-33.03,-33.03,0,*57
1487192611.9,56515,13.63,74876.0,-4.33,-32.91,-33.03,0,*5C
1487192613.11,56516,13.63,74874.8,-4.33,-32.91,-32.91,0,*55
1487192614.38,56517,13.63,74878.3,-4.33,-32.75,-32.85,0,*5B
1487192615.61,56518,13.63,74874.3,-4.29,-32.69,-32.69,0,*50
1487192616.86,56519,13.63,74872.8,-4.29,-32.69,-32.75,0,*5C
1487192618.08,56520,13.63,74878.8,-4.29,-32.91,-32.91,0,*5B
1487192619.29,56521,13.63,74874.0,-4.29,-32.91,-33.03,0,*50
1487192620.56,56522,13.63,74872.8,-4.29,-33.09,-33.27,0,*55
1487192621.8,56523,13.63,74874.8,-4.33,-33.03,-33.09,0,*59
1487192623.02,56524,13.63,74876.0,-4.29,-32.91,-32.91,0,*5F
1487192624.27,56525,13.63,74876.8,-4.29,-32.75,-32.91,0,*54
1487192625.51,56526,13.63,74872.5,-4.33,-33.03,-33.09,0,*5C
1487192626.74,56527,13.63,74876.8,-4.33,-32.91,-33.09,0,*57
1487192627.98,56528,13.63,74876.3,-4.33,-33.03,-33.27,0,*5E
1487192629.26,56529,13.63,74872.8,-4.33,-33.09,-33.27,0,*55
1487192630.47,56530,13.63,74874.3,-4.33,-32.91,-32.91,0,*51
1487192631.74,56531,13.63,74876.3,-4.33,-32.75,-32.85,0,*5F
1487192633.01,56532,13.63,74874.0,-4.33,-32.75,-32.85,0,*5C
1487192634.28,56533,13.63,74878.8,-4.29,-32.85,-32.85,0,*59
1487192635.52,56534,13.63,74876.0,-4.29,-33.03,-33.09,0,*54
1487192636.73,56535,13.63,74876.0,-4.33,-32.91,-33.03,0,*5E
1487192637.94,56536,13.63,74878.8,-4.33,-32.91,-33.21,0,*5D
1487192639.16,56537,13.63,74874.8,-4.29,-33.03,-33.03,0,*5D
1487192640.38,56538,13.63,74878.3,-4.29,-32.91,-32.91,0,*52
1487192641.59,56539,13.63,74878.0,-4.33,-32.91,-32.91,0,*58
1487192642.86,56540,13.63,74876.0,-4.29,-32.85,-32.85,0,*5D
1487192644.11,56541,13.63,74878.8,-4.29,-32.85,-32.91,0,*59
1487192645.34,56542,13.63,74876.0,-4.33,-32.91,-33.09,0,*54
1487192646.58,56543,13.63,74874.3,-4.33,-33.03,-33.09,0,*5F
1487192647.83,56544,13.63,74878.3,-4.33,-33.21,-33.27,0,*54
1487192649.07,56545,13.63,74876.0,-4.33,-33.09,-33.03,0,*59
1487192650.31,56546,13.63,74872.3,-4.29,-32.85,-32.91,0,*5E
1487192651.59,56547,13.63,74874.3,-4.33,-32.75,-32.85,0,*5E
1487192652.83,56548,13.63,74872.3,-4.33,-32.69,-32.85,0,*5C
1487192654.04,56549,13.63,74870.3,-4.33,-32.91,-32.91,0,*5F
1487192655.29,56550,13.63,74872.0,-4.33,-33.03,-33.27,0,*51
1487192656.5,56551,13.63,74870.8,-4.33,-33.03,-33.21,0,*56
1487192657.74,56552,13.63,74870.0,-4.33,-33.09,-33.03,0,*5F
1487192659.0,56553,13.63,74870.0,-4.35,-32.97,-33.15,0,*59
1487192660.29,56554,13.63,74872.3,-4.35,-33.09,-33.27,0,*59
1487192661.56,56555,13.63,74874.0,-4.35,-33.15,-33.27,0,*55
1487192662.82,56556,13.63,74872.0,-4.35,-33.09,-33.15,0,*5A
1487192664.1,56557,13.63,74872.5,-4.35,-32.97,-33.09,0,*50
1487192665.34,56558,13.63,74870.0,-4.35,-32.91,-32.91,0,*59
1487192666.63,56559,13.63,74868.5,-4.35,-32.75,-32.79,0,*54
1487192667.87,56560,13.63,74872.3,-4.35,-33.15,-33.15,0,*52
1487192669.16,56561,13.63,74872.0,-4.35,-32.75,-32.75,0,*53
1487192670.45,56562,13.63,74870.3,-4.35,-32.97,-33.09,0,*56
1487192671.74,56563,13.63,74870.8,-4.35,-33.09,-33.27,0,*5D
1487192673.0,56564,13.63,74870.0,-4.35,-33.15,-33.27,0,*57
1487192674.27,56565,13.63,74870.0,-4.35,-33.09,-33.15,0,*5A
1487192675.52,56566,13.63,74872.5,-4.37,-32.97,-33.09,0,*50
1487192676.71,56567,13.63,74870.5,-4.37,-32.91,-32.91,0,*57
1487192677.98,56568,13.63,74872.5,-4.35,-32.79,-32.91,0,*5C
1487192679.18,56569,13.63,74872.8,-4.37,-32.91,-32.91,0,*59
1487192680.44,56570,13.63,74874.3,-4.35,-32.45,-32.57,0,*50
1487192681.7,56571,13.63,74872.3,-4.35,-32.29,-32.39,0,*53
1487192682.98,56572,13.63,74872.0,-4.35,-32.45,-32.63,0,*55
1487192684.27,56573,13.63,74870.8,-4.35,-32.63,-32.63,0,*50
1487192685.52,56574,13.63,74868.3,-4.35,-32.91,-32.97,0,*51
1487192686.81,56575,13.63,74872.8,-4.35,-33.09,-32.97,0,*50
1487192688.1,56576,13.63,74868.8,-4.35,-32.63,-32.79,0,*5E
1487192689.39,56577,13.63,74874.8,-4.35,-32.63,-32.79,0,*5F
1487192690.64,56578,13.63,74870.3,-4.37,-32.79,-32.97,0,*59
1487192691.92,56579,13.63,74874.3,-4.35,-32.97,-33.09,0,*5C
1487192693.19,56580,13.63,74872.3,-4.35,-32.91,-33.09,0,*5C
1487192694.45,56581,13.63,74872.5,-4.35,-32.39,-32.63,0,*52
1487192695.7,56582,13.63,74870.3,-4.35,-32.91,-32.97,0,*58
1487192696.98,56583,13.63,74876.0,-4.35,-32.97,-32.97,0,*5F
1487192698.24,56584,13.63,74872.5,-4.33,-32.97,-32.97,0,*5E
1487192699.45,56585,13.63,74876.0,-4.33,-32.39,-32.57,0,*57
1487192700.69,56586,13.63,74874.0,-4.33,-32.85,-32.91,0,*59
1487192701.98,56587,13.63,74872.0,-4.35,-32.97,-33.09,0,*5D
1487192703.24,56588,13.63,74876.8,-4.35,-32.97,-33.15,0,*5F
1487192704.52,56589,13.63,74872.3,-4.35,-32.79,-32.97,0,*55
1487192705.81,56590,13.63,74874.8,-4.35,-32.79,-32.97,0,*5D
1487192707.07,56591,13.63,74874.8,-4.35,-33.09,-33.15,0,*51
1487192708.27,56592,13.63,74874.0,-4.37,-32.91,-32.91,0,*5D
1487192709.51,56593,13.63,74874.8,-4.35,-32.39,-32.57,0,*56
1487192710.77,56594,13.63,74878.0,-4.35,-32.39,-32.63,0,*56
1487192712.02,56595,13.63,74880.3,-4.35,-32.91,-32.97,0,*5E
1487192713.28,56596,13.63,74878.0,-4.35,-32.97,-33.15,0,*50
1487192714.53,56597,13.63,74876.5,-4.33,-32.75,-32.91,0,*56
1487192715.74,56598,13.63,74876.3,-4.33,-32.91,-32.91,0,*53
1487192717.01,56599,13.63,74872.5,-4.33,-32.75,-32.85,0,*5D
1487192718.26,56600,13.63,74872.0,-4.29,-32.69,-32.75,0,*57
1487192719.5,56601,13.63,74874.5,-4.33,-32.91,-33.09,0,*50
1487192720.77,56602,13.63,74872.8,-4.33,-32.75,-32.85,0,*5C
1487192722.03,56603,13.63,74870.8,-4.35,-32.97,-33.15,0,*5F
1487192723.32,56604,13.63,74874.3,-4.35,-33.09,-33.27,0,*5F
1487192724.55,56605,13.63,74874.0,-4.37,-32.79,-32.91,0,*56
1487192725.84,56606,13.63,74874.8,-4.35,-32.97,-33.09,0,*57
1487192727.12,56607,13.63,74876.0,-4.35,-32.97,-33.09,0,*56
1487192728.38,56608,13.63,74876.3,-4.35,-32.91,-32.97,0,*59
1487192729.62,56609,13.63,74878.0,-4.33,-32.91,-33.09,0,*58
1487192730.87,56610,13.63,74878.3,-4.35,-32.91,-32.97,0,*50
1487192732.16,56611,13.63,74876.5,-4.35,-32.63,-32.75,0,*50
1487192733.42,56612,13.63,74878.8,-4.35,-32.39,-32.63,0,*5B
1487192734.69,56613,13.63,74878.5,-4.35,-32.63,-32.91,0,*58
1487192735.96,56614,13.63,74878.8,-4.35,-32.75,-32.91,0,*58
1487192737.2,56615,13.63,74876.0,-4.37,-32.45,-32.63,0,*55
1487192738.48,56616,13.63,74876.3,-4.33,-32.75,-32.85,0,*59
1487192739.72,56617,13.63,74878.0,-4.33,-33.03,-33.09,0,*5D
1487192740.98,56618,13.63,74878.3,-4.35,-33.09,-33.15,0,*53
1487192742.19,56619,13.63,74876.5,-4.33,-32.91,-33.03,0,*53
1487192743.42,56620,13.63,74878.0,-4.35,-32.91,-33.15,0,*58
1487192744.68,56621,13.63,74876.3,-4.35,-33.09,-33.15,0,*59
1487192745.94,56622,13.63,74882.0,-4.37,-33.09,-33.27,0,*59
1487192747.23,56623,13.63,74878.8,-4.35,-33.09,-33.09,0,*56
1487192748.52,56624,13.63,74880.8,-4.35,-33.09,-33.27,0,*5D
1487192749.78,56625,13.63,74878.0,-4.37,-32.97,-33.27,0,*58
1487192751.04,56626,13.63,74872.3,-4.35,-33.15,-33.43,0,*50
1487192752.27,56627,13.63,74874.3,-4.35,-33.15,-33.15,0,*52
1487192753.57,56628,13.63,74878.0,-4.35,-32.75,-32.79,0,*51
1487192754.86,56629,13.63,74878.0,-4.35,-32.63,-32.75,0,*5B
1487192756.12,56630,13.63,74878.0,-4.35,-32.57,-32.63,0,*53
1487192757.41,56631,13.63,74878.5,-4.35,-32.75,-32.79,0,*59
1487192758.65,56632,13.63,74878.3,-4.37,-32.57,-32.75,0,*54
1487192759.91,56633,13.63,74872.8,-4.35,-32.39,-32.45,0,*5C
1487192761.18,56634,13.63,74878.8,-4.35,-32.75,-32.91,0,*5A
1487192762.42,56635,13.63,74876.3,-4.33,-32.75,-32.91,0,*5D
1487192763.68,56636,13.63,74876.5,-4.35,-32.91,-32.97,0,*54
1487192764.94,56637,13.63,74876.3,-4.35,-33.09,-33.15,0,*5E
1487192766.23,56638,13.63,74874.8,-4.35,-33.09,-33.31,0,*57
1487192767.52,56639,13.63,74878.3,-4.35,-32.97,-33.27,0,*57
1487192768.78,56640,13.63,74872.5,-4.35,-32.91,-33.09,0,*53
1487192770.05,56641,13.63,74872.0,-4.35,-32.79,-32.91,0,*54
1487192771.31,56642,13.63,74870.3,-4.35,-32.75,-33.03,0,*51
1487192772.53,56643,13.63,74874.5,-4.33,-33.03,-33.21,0,*56
1487192773.74,56644,13.63,74872.5,-4.29,-33.03,-33.21,0,*5A
1487192774.98,56645,13.63,74870.8,-4.33,-32.91,-33.09,0,*50
1487192776.24,56646,13.63,74872.8,-4.35,-32.97,-33.15,0,*5E
1487192777.49,56647,13.63,74874.0,-4.37,-32.63,-32.75,0,*51
1487192778.76,56648,13.63,74874.3,-4.35,-32.39,-32.45,0,*50
1487192780.04,56649,13.63,74872.0,-4.35,-32.29,-32.63,0,*54
1487192781.27,56650,13.63,74874.3,-4.35,-32.39,-32.57,0,*5A
1487192782.52,56651,13.63,74874.3,-4.35,-32.29,-32.57,0,*5A
1487192783.73,56652,13.63,74876.5,-4.33,-32.35,-32.57,0,*52
1487192784.93,56653,13.63,74878.8,-4.33,-32.23,-32.35,0,*50
1487192786.14,56654,13.63,74876.8,-4.29,-32.23,-32.57,0,*58
1487192787.35,56655,13.63,74878.0,-4.29,-32.51,-32.57,0,*5C
1487192788.56,56656,13.63,74874.0,-4.29,-32.35,-32.57,0,*5D
1487192789.77,56657,13.63,74874.3,-4.29,-32.51,-32.57,0,*5E
1487192790.99,56658,13.63,74872.3,-4.29,-32.35,-32.51,0,*55
1487192792.24,56659,13.63,74874.8,-4.29,-32.69,-32.75,0,*5B
1487192793.49,56660,13.63,74874.3,-4.29,-32.85,-32.91,0,*59
1487192794.73,56661,13.63,74872.5,-4.33,-32.85,-33.03,0,*59
1487192795.97,56662,13.63,74872.5,-4.33,-32.75,-32.91,0,*5F
1487192797.22,56663,13.63,74872.3,-4.29,-32.85,-32.91,0,*5A
1487192798.44,56664,13.63,74876.3,-4.33,-32.57,-32.69,0,*5E
1487192799.69,56665,13.63,74878.0,-4.29,-32.19,-32.51,0,*55
1487192800.94,56666,13.56,74874.3,-4.29,-32.57,-32.75,0,*5A
1487192802.2,56667,13.63,74872.3,-4.33,-32.85,-33.09,0,*55
1487192803.45,56668,13.63,74878.8,-4.29,-32.85,-33.03,0,*5B
1487192804.67,56669,13.63,74874.5,-4.29,-32.51,-32.69,0,*5E
1487192805.89,56670,13.63,74876.0,-4.29,-32.69,-33.03,0,*50
1487192807.14,56671,13.63,74874.3,-4.29,-32.75,-33.03,0,*5C
1487192808.41,56672,13.63,74872.8,-4.29,-32.75,-32.85,0,*50
1487192809.66,56673,13.63,74870.3,-4.33,-32.69,-32.85,0,*57
1487192810.91,56674,13.63,74872.3,-4.29,-32.69,-32.85,0,*5B
1487192812.16,56675,13.63,74874.0,-4.29,-32.75,-32.91,0,*52
1487192813.41,56676,13.63,74870.8,-4.29,-32.75,-32.91,0,*51
1487192814.65,56677,13.63,74878.5,-4.29,-32.85,-33.03,0,*55
1487192815.92,56678,13.63,74874.8,-4.29,-32.85,-33.09,0,*50
1487192817.14,56679,13.63,74874.5,-4.29,-33.03,-33.21,0,*54
1487192818.38,56680,13.63,74872.5,-4.29,-32.75,-32.91,0,*58
1487192819.6,56681,13.63,74874.8,-4.29,-32.91,-33.03,0,*59
1487192820.85,56682,13.63,74874.0,-4.29,-32.75,-33.03,0,*50
1487192822.09,56683,13.63,74874.8,-4.33,-32.69,-32.85,0,*58
1487192823.3,56684,13.56,74874.0,-4.33,-32.51,-32.57,0,*5B
1487192824.52,56685,13.63,74876.5,-4.29,-32.39,-32.69,0,*52
1487192825.74,56686,13.63,74874.3,-4.33,-32.39,-32.69,0,*5A
1487192826.99,56687,13.63,74868.5,-4.29,-32.13,-32.19,0,*5F
1487192828.19,56688,13.63,74868.8,-4.29,-32.35,-32.57,0,*5E
1487192829.4,56689,13.63,74866.0,-4.29,-32.51,-32.57,0,*5D
1487192830.62,56690,13.63,74868.8,-4.29,-32.35,-32.51,0,*51
1487192831.91,56691,13.63,74868.3,-4.27,-32.63,-32.79,0,*57
1487192833.19,56692,13.63,74868.3,-4.27,-32.69,-32.79,0,*5E
1487192834.44,56693,13.63,74870.8,-4.27,-32.69,-32.69,0,*5E
1487192835.71,56694,13.63,74870.5,-4.27,-32.45,-32.51,0,*5C
1487192836.97,56695,13.56,74864.5,-4.25,-32.79,-32.97,0,*5A
1487192838.24,56696,13.63,74868.0,-4.27,-32.69,-32.85,0,*59
1487192839.49,56697,13.63,74868.8,-4.25,-32.63,-32.69,0,*52
1487192840.78,56698,13.63,74878.3,-4.27,-32.79,-32.85,0,*56
1487192842.05,56699,13.63,74874.3,-4.27,-32.19,-32.35,0,*5A
1487192843.28,56700,13.63,74862.5,-4.25,-32.29,-32.35,0,*5A
1487192844.57,56701,13.63,74864.5,-4.27,-32.45,-32.45,0,*54
1487192845.83,56702,13.63,74862.5,-4.25,-32.29,-32.45,0,*5F
1487192847.07,56703,13.63,74862.3,-4.25,-32.29,-32.51,0,*5B
1487192848.35,56704,13.63,74864.5,-4.27,-32.29,-32.45,0,*5B
1487192849.59,56705,13.63,74860.5,-4.25,-32.45,-32.51,0,*57
1487192850.84,56706,13.63,74864.8,-4.25,-32.63,-32.69,0,*5B
1487192852.13,56707,13.63,74862.0,-4.27,-32.79,-32.79,0,*52
1487192853.4,56708,13.63,74868.8,-4.25,-32.63,-32.63,0,*5F
1487192854.67,56709,13.63,74868.8,-4.25,-32.79,-32.85,0,*5D
1487192855.9,56710,13.63,74870.3,-4.23,-32.13,-32.23,0,*53
1487192857.17,56711,13.63,74870.8,-4.23,-32.07,-32.23,0,*57
1487192858.43,56712,13.63,74868.0,-4.25,-32.45,-32.63,0,*50
1487192859.66,56713,13.63,74872.3,-4.25,-32.35,-32.45,0,*52
1487192860.92,56714,13.63,74872.0,-4.23,-32.29,-32.39,0,*55
1487192862.18,56715,13.63,74872.5,-4.23,-32.45,-32.57,0,*56
1487192863.41,56716,13.63,74870.8,-4.23,-32.39,-32.57,0,*5E
1487192864.68,56717,13.63,74874.0,-4.23,-32.75,-32.91,0,*5D
1487192865.91,56718,13.63,74878.5,-4.23,-32.39,-32.57,0,*50
1487192867.15,56719,13.63,74878.0,-4.21,-32.23,-32.45,0,*5B
1487192868.44,56720,13.63,74872.8,-4.23,-32.45,-32.45,0,*53
1487192869.69,56721,13.63,74876.3,-4.23,-32.45,-32.57,0,*51
1487192870.92,56722,13.63,74874.8,-4.23,-32.39,-32.57,0,*59
1487192872.21,56723,13.63,74874.3,-4.23,-32.45,-32.63,0,*54
1487192873.42,56724,13.63,74870.8,-4.21,-32.91,-32.91,0,*55
1487192874.66,56725,13.56,74872.3,-4.23,-32.91,-33.15,0,*5B
1487192875.87,56726,13.56,74868.0,-4.21,-32.91,-32.91,0,*57
1487192877.15,56727,13.63,74870.5,-4.21,-32.75,-32.79,0,*5A
1487192878.41,56728,13.63,74872.0,-4.23,-32.57,-32.63,0,*5C
1487192879.69,56729,13.56,74870.8,-4.23,-32.45,-32.63,0,*5E
1487192880.98,56730,13.63,74870.8,-4.23,-32.79,-32.97,0,*52
1487192882.27,56731,13.63,74872.0,-4.23,-32.63,-32.75,0,*54
1487192883.54,56732,13.63,74878.5,-4.23,-32.57,-32.79,0,*5C
1487192884.79,56733,13.63,74880.5,-4.21,-32.75,-32.91,0,*59
1487192886.04,56734,13.63,74882.8,-4.23,-32.45,-32.57,0,*55
1487192887.26,56735,13.63,74880.3,-4.21,-32.39,-32.57,0,*5D
1487192888.53,56736,13.63,74876.3,-4.21,-32.45,-32.75,0,*55
1487192889.81,56737,13.63,74876.0,-4.23,-32.45,-32.63,0,*51
1487192891.08,56738,13.63,74876.8,-4.21,-32.45,-32.63,0,*5C
1487192892.31,56739,13.63,74874.8,-4.21,-32.45,-32.57,0,*5A
1487192893.58,56740,13.63,74868.0,-4.21,-32.45,-32.63,0,*53
1487192894.84,56741,13.63,74872.8,-4.21,-32.45,-32.63,0,*52
1487192896.1,56742,13.63,74868.3,-4.23,-32.45,-32.57,0,*54
1487192897.36,56743,13.56,74870.0,-4.21,-32.29,-32.45,0,*5E
1487192898.57,56744,13.63,74868.8,-4.21,-32.39,-32.57,0,*5B
1487192899.81,56745,13.56,74864.8,-4.21,-32.13,-32.29,0,*5B
1487192901.08,56746,13.63,74870.5,-4.19,-32.19,-32.39,0,*58